User: anonymous   Login
Location: Franzen
(48.6167°N, 15.3833°E)
Time: 03:56:57
(UTC+00:00)
Language:

ERS-1 Rocket - Orbit

View from above orbital plane
View from above orbital plane
View from above satellite
View from above satellite

Ground track
Ground track

The orbit data is extracted from the following two-line orbital elements,

1 21610U 91050F   21164.85479351  .00000036  00000-0  24794-4 0  9990
2 21610  98.4231 235.6491 0002075 242.5323 243.2090 14.40951383569743
Epoch (UTC): 13 June 2021 20:30:54
Eccentricity: 0.0002075
inclination: 98.4231°
perigee height: 754 km
apogee height: 757 km
right ascension of ascending node: 235.6491°
argument of perigee: 242.5323°
revolutions per day: 14.40951383
mean anomaly at epoch: 243.2090°
orbit number at epoch: 56974

The dashed part of the orbit path shows where the satellite is in the earth's shadow,  

DLR